STARLINK-11710, 64244

Orbit data source: Space-Track

STARLINK-11710, 64244 is a payload satellite owned by SpaceX/Seattle (US) in LEO that was launched on Tue, 03 Jun 2025 UTC via an FALCON 9 launch vehicle from the Air Force Eastern Test Range (AFETR). Payload-class satellites include a variety of spacecraft equipped with specific instruments for various scientific and technological missions. These include communications satellites like Starlink; space stations such as the ISS; scientific satellites like the Hubble; Earth observation satellites from companies like Planet Labs, Umbra, and HawkEye 360; GPS; miniature CubeSats for education and research; and military/defense satellites.

Loading next visibility...
Identifier
64244, 2025-119M
Orbit
LEO
Country
Flag of USUS
Related business
Manufacturer
SpaceX/Seattle
Mission
Operational Commercial Communications
Bus & Motor
STARLINK V2MD, Unknown motor
Mass
960 kg wet, ~910 kg dry
Launch date (UTC)
2025-06-03 (1 year ago)
Launch vehicle
FALCON 9
Launch site
Air Force Eastern Test Range (AFETR)
Object type
Payload
Rocket body
Debris
Shape & HBR
Box + 2 Pan, 18.1 m
Radar Cross Section
36.964 m², Large (>1 m²)

Expand to show TLE details & history
Last TLE update: 1 day ago

TLE from 1 day ago
0 STARLINK-11710
1 64244U 25119M   26170.43094980  .00077111  00000-0  59595-3 0  9994
2 64244  43.0007 316.0569 0003002 278.0646  81.9881 15.70953173 61243
Epoch: 2026-06-19T10:20Z
TLE epoch observation values (Epoch: 2026-06-19T10:20:34.062Z)
Latitude
-0.00003°
Longitude
-106.74509°
Altitude
355.662 km
Speed
7.698 km/s
True Right ascension
21h 04m 13s
True Declination
0° 00' 00"
Sunlit
Object was in full shadow at epoch
Visualization orbit readout
Latitude
Unknown
Longitude
Unknown
Altitude
Unknown
Speed
Unknown
Apparent Right ascension
Unknown
Apparent Declination
Unknown
Sunlit
N/A
Visualization observer readout
Local Sidereal Time
07:13:16
Azimuth
Unknown
Elevation
Unknown
Doppler factor
Unknown
Orbital elements
Apogee altitude
360.175 km
Perigee altitude
356.131 km
Semi-major axis
6,736.29 km
Eccentricity
0.0003
Inclination
43.0007°
RAAN
316.0569°
Arg. of periapsis
278.0646°
True anomaly
82.02217°
Mean anomaly
81.9881°
Eccentric anomaly
82.00513°
Mean motion
3.92565 °/min
Orbital period
91.7 mins
BSTAR
0.00059595
Loading maneuver chart data...
Computing Atmospheric mass density...
Loading historical data...
Loading historical data...
Loading historical data...
Loading historical data...
Loading historical data...
Loading historical data...
Loading historical data...

Documentation

Showing up to 5 results
|